Temperature
1 1 1 1 1 1 1 1 1 1 1 1 1 1 1 1 1 1 1 1 1 1 1 1 1 1 1 1 1 1 1 1 1 1 1 1 1 1 0 0 0 0 0
0 0 0 0 0 0 0 0 1 1 1 1 1 1 0 1 1 1 1 1 1 1 1 1 1 1 1 0 0 1 1 1 1 1 1 0 0 0 0 -0 -0 -0 -0
-1 -0 -0 -0 -0 -0 -0 -0 -0 -0 -0 0 0 0 0 0 -0 0 0 0 0 0 0 -0 -0 -0 -0 -0 0 0 0 -0 -0 -0 -0 -0 -0 -1 -1 -1 -1 -1 -1
-1 -1 -1 -1 -1 -1 -1 -1 -1 -1 -1 -1 -0 -0 -0 -1 -1 -1 -0 -0 -0 -0 -0 -0 -0 -0 -1 -0 -0 -0 -0 -1 -1 -1 -1 -1 -1 -1 -1 -1 -1 -1 -1
-2 -2 -1 -1 -1 -2 -2 -2 -1 -1 -1 -1 -1 -1 -1 -1 -1 -1 -1 -1 -1 -1 -1 -1 -1 -1 -1 -1 -1 -1 -1 -1 -1 -1 -1 -1 -1 -1 -2 -1 -2 -2 -2
-3 -2 -2 -2 -2 -2 -2 -2 -2 -2 -2 -2 -2 -2 -2 -2 -2 -2 -2 -2 -2 -2 -2 -1 -1 -1 -2 -2 -2 -2 -2 -2 -2 -2 -2 -2 -2 -2 -2 -2 -2 -3 -3
-3 -3 -3 -3 -3 -3 -3 -3 -3 -3 -2 -2 -2 -2 -2 -2 -2 -3 -3 -2 -2 -2 -2 -2 -2 -2 -2 -2 -2 -2 -2 -2 -2 -2 -2 -2 -2 -2 -2 -3 -3 -2 -3
-4 -4 -4 -3 -3 -3 -3 -3 -3 -3 -3 -3 -3 -3 -3 -3 -3 -3 -3 -3 -3 -3 -3 -3 -3 -3 -3 -3 -3 -3 -3 -3 -3 -3 -3 -3 -3 -3 -3 -3 -3 -3 -4
-4 -4 -4 -4 -4 -4 -4 -4 -4 -4 -3 -4 -4 -4 -4 -3 -3 -3 -4 -4 -3 -3 -3 -3 -3 -3 -3 -3 -4 -4 -4 -3 -3 -4 -3 -3 -3 -3 -4 -4 -4 -4 -5
-5 -4 -4 -4 -4 -4 -4 -4 -4 -4 -4 -4 -4 -4 -4 -4 -4 -4 -4 -4 -4 -4 -4 -4 -4 -4 -4 -4 -4 -4 -4 -4 -4 -4 -4 -4 -4 -4 -4 -4 -5 -5 -5
-5 -5 -5 -5 -5 -5 -5 -5 -5 -5 -5 -5 -5 -5 -5 -4 -4 -4 -5 -5 -5 -5 -4 -4 -4 -4 -4 -4 -4 -4 -4 -4 -4 -4 -4 -4 -5 -5 -5 -5 -5 -5 -6
-6 -6 -6 -6 -6 -6 -6 -6 -6 -6 -6 -5 -5 -5 -5 -5 -5 -5 -5 -5 -5 -5 -5 -5 -5 -5 -5 -5 -5 -5 -5 -5 -5 -5 -5 -5 -5 -5 -5 -5 -6 -6 -6
-6 -6 -6 -6 -6 -6 -7 -7 -6 -6 -6 -6 -6 -6 -6 -6 -6 -6 -6 -6 -6 -6 -6 -6 -6 -6 -6 -6 -6 -6 -6 -6 -6 -6 -6 -6 -6 -6 -6 -6 -6 -6 -7
-7 -7 -7 -7 -7 -7 -7 -7 -7 -7 -7 -7 -7 -7 -7 -6 -6 -6 -6 -6 -6 -6 -6 -6 -6 -6 -6 -6 -6 -6 -6 -6 -6 -6 -6 -6 -7 -7 -7 -7 -7 -7 -7
-8 -8 -7 -7 -7 -7 -8 -8 -8 -8 -8 -8 -8 -7 -7 -7 -7 -7 -7 -7 -7 -7 -7 -7 -7 -7 -7 -7 -7 -7 -7 -7 -7 -7 -7 -7 -7 -7 -7 -8 -8 -8 -8
-8 -8 -8 -8 -8 -8 -8 -8 -8 -8 -8 -8 -8 -8 -8 -8 -8 -8 -8 -8 -7 -7 -7 -7 -7 -7 -7 -7 -7 -7 -7 -7 -8 -8 -8 -8 -8 -8 -8 -8 -8 -8 -9
-9 -9 -9 -9 -9 -9 -9 -9 -9 -9 -9 -9 -9 -9 -9 -8 -8 -8 -8 -8 -8 -8 -8 -8 -8 -8 -8 -8 -8 -8 -8 -8 -8 -8 -8 -8 -8 -8 -9 -9 -9 -9 -9
-9 -9 -9 -10 -9 -10 -10 -10 -10 -10 -10 -9 -9 -9 -9 -9 -9 -9 -9 -9 -9 -9 -9 -9 -9 -9 -9 -9 -9 -9 -9 -9 -9 -9 -9 -9 -9 -9 -9 -9 -10 -10 -10
-10 -10 -10 -10 -10 -10 -10 -10 -10 -10 -10 -10 -10 -10 -10 -10 -10 -10 -10 -9 -9 -10 -10 -9 -9 -9 -9 -9 -9 -9 -9 -10 -10 -10 -9 -9 -10 -10 -10 -10 -10 -10 -10
-11 -11 -11 -11 -11 -11 -11 -11 -11 -11 -11 -11 -11 -11 -11 -11 -10 -10 -10 -10 -10 -10 -10 -10 -10 -10 -10 -10 -10 -10 -10 -10 -10 -10 -10 -10 -10 -10 -10 -10 -11 -11 -11
-11 -11 -11 -11 -11 -11 -11 -12 -12 -12 -11 -11 -11 -11 -12 -11 -11 -11 -11 -11 -11 -11 -11 -11 -11 -11 -11 -11 -11 -11 -11 -11 -11 -11 -11 -11 -11 -11 -11 -11 -11 -11 -11
-12 -12 -12 -12 -12 -12 -12 -12 -12 -12 -12 -12 -12 -12 -12 -12 -12 -12 -12 -12 -12 -12 -11 -11 -11 -11 -11 -11 -11 -11 -11 -11 -11 -11 -11 -11 -11 -11 -11 -11 -11 -11 -11
-12 -12 -12 -12 -12 -12 -12 -12 -12 -12 -12 -12 -12 -12 -12 -12 -12 -12 -12 -12 -12 -12 -12 -12 -12 -12 -12 -12 -12 -12 -12 -11 -11 -11 -11 -11 -11 -12 -12 -12 -12 -12 -12
-13 -13 -13 -13 -13 -13 -13 -13 -13 -13 -13 -13 -13 -13 -13 -13 -13 -13 -13 -13 -13 -12 -12 -12 -12 -12 -12 -12 -12 -12 -12 -12 -12 -12 -12 -12 -12 -12 -12 -12 -12 -12 -12
-13 -13 -13 -13 -13 -13 -13 -13 -13 -13 -13 -13 -13 -13 -13 -13 -13 -13 -13 -13 -13 -13 -13 -13 -13 -12 -12 -12 -12 -12 -12 -12 -12 -12 -12 -12 -12 -12 -12 -12 -12 -12 -12
-14 -14 -14 -14 -14 -14 -14 -14 -14 -14 -14 -14 -14 -14 -14 -14 -14 -14 -14 -13 -13 -13 -13 -13 -13 -13 -13 -12 -12 -12 -12 -12 -12 -12 -12 -12 -12 -12 -12 -13 -13 -13 -13
Wind_Speed
2 2 2 2 1 1 2 3 3 3 4 4 5 6 6 6 7 7 7 7 7 6 5 6 6 4 4 4 3 4 4 3 4 3 1 1 3 3 3 5 5 5 6
2 2 2 2 1 1 2 2 2 3 3 4 4 5 6 6 7 7 8 8 8 8 7 7 6 5 5 5 4 5 4 4 3 4 2 2 3 4 4 3 4 4 5
2 2 2 2 2 2 3 2 2 3 3 3 4 5 5 5 6 7 7 7 8 8 8 8 7 7 7 5 6 5 4 3 3 3 3 2 2 2 2 2 2 3 5
2 2 2 2 2 2 2 2 2 3 3 3 4 4 5 5 6 6 6 7 7 7 7 8 8 8 8 7 6 6 4 4 4 3 3 2 2 2 2 2 3 2 3
2 2 3 3 2 2 2 2 2 2 3 3 4 4 4 5 6 7 7 6 7 6 6 7 8 9 10 8 6 6 6 5 5 4 3 2 3 3 4 3 4 2 3
2 3 3 2 2 2 2 2 2 2 2 3 4 4 5 5 7 8 7 7 6 7 7 6 7 8 9 10 11 10 9 7 6 6 5 5 6 5 4 4 3 2 3
2 2 2 2 2 2 3 2 3 3 3 3 4 4 5 6 8 8 9 6 6 7 7 6 6 6 7 6 8 9 9 10 10 7 7 7 7 7 6 6 6 5 4
2 3 3 2 3 3 3 3 3 3 3 3 3 4 5 6 7 8 8 6 6 6 7 7 7 6 7 7 6 6 6 6 7 7 7 7 6 7 7 6 5 3 1
2 3 3 3 3 3 3 3 3 3 3 3 3 4 5 5 6 7 6 4 4 5 6 7 7 7 9 9 7 6 5 5 6 7 7 6 7 7 6 3 3 3 3
3 3 3 3 3 4 4 3 2 2 3 3 4 4 5 5 7 7 6 4 5 5 4 5 8 9 9 9 7 6 6 5 3 3 3 3 4 5 7 6 5 5 3
3 2 2 3 3 3 2 2 2 2 2 2 3 3 4 5 6 7 7 4 5 5 5 5 5 8 9 9 8 6 7 5 4 4 3 3 2 2 3 4 5 5 4
2 2 2 2 2 1 1 1 2 2 2 3 3 3 3 4 5 6 7 7 6 5 5 4 5 7 8 8 6 6 6 4 3 3 3 3 3 3 2 2 3 3 4
2 2 2 1 1 1 1 1 1 2 2 2 2 3 3 3 3 5 6 6 6 4 4 6 7 7 6 5 6 7 5 3 3 4 4 4 3 3 2 1 2 2 1
1 2 1 1 1 1 1 1 1 2 2 2 3 3 3 3 3 3 3 4 4 4 3 4 6 6 4 3 3 3 3 4 4 4 4 3 2 2 2 2 2 2 1
1 1 1 1 0 1 1 1 2 2 3 3 3 3 4 4 4 5 3 3 3 4 3 2 2 2 2 2 2 2 2 3 3 3 3 3 3 3 3 2 2 2 3
1 1 1 1 1 1 1 2 3 3 4 5 5 4 4 5 5 4 4 4 4 4 3 3 3 3 4 3 3 3 3 3 3 3 4 4 4 4 3 2 3 3 4
1 1 1 1 1 1 1 1 2 3 3 4 4 4 4 3 3 3 4 4 4 3 2 3 3 3 3 3 3 3 3 3 3 3 4 4 4 4 4 4 4 4 4
2 2 2 1 1 1 1 1 1 1 2 2 3 4 4 3 2 2 2 1 1 1 2 3 3 4 4 3 3 3 3 3 3 3 3 4 4 4 4 5 5 5 5
2 1 1 1 1 1 1 1 1 1 1 2 2 3 4 4 3 3 2 0 1 2 2 2 3 3 3 3 3 3 3 3 3 3 3 4 4 4 4 5 5 6 5
2 3 3 1 1 1 1 1 1 1 1 2 2 2 2 3 2 2 1 1 1 2 2 2 2 2 3 3 3 3 3 4 4 4 4 4 4 5 5 5 5 5 5
1 2 3 2 1 1 1 1 1 1 2 2 2 3 3 1 1 2 2 2 2 2 2 2 2 3 2 3 3 4 4 4 4 4 4 4 4 4 4 5 5 5 5
1 1 1 1 1 1 1 1 1 2 2 2 3 3 4 2 1 2 2 2 2 2 2 2 2 2 3 3 3 4 4 4 4 4 4 4 4 4 4 4 4 4 4
1 1 1 1 1 2 3 2 1 2 2 2 2 2 2 2 2 2 3 2 2 2 2 2 2 2 3 4 4 4 5 5 5 5 4 4 4 4 4 4 5 5 5
0 0 1 1 1 1 2 2 2 2 2 2 2 2 2 2 3 3 3 2 2 2 2 3 3 4 4 4 5 5 6 7 7 6 6 6 5 4 4 4 5 6 6
0 1 1 1 1 2 2 2 2 2 2 3 3 3 3 3 3 3 2 2 2 2 3 3 4 4 5 6 6 6 7 8 7 7 7 6 6 6 5 5 5 5 5
0 1 1 1 1 2 2 2 2 2 2 3 3 3 3 3 3 3 3 2 2 3 3 3 4 5 6 6 7 8 8 8 8 8 7 6 6 6 5 5 6 5 5
Wind_Direction
295 290 278 269 256 232 221 218 214 217 219 219 206 198 197 196 191 195 201 196 201 206 207 205 212 205 204 203 201 201 207 199 222 247 228 205 200 204 224 222 225 224 235
281 280 277 272 239 232 245 237 225 224 224 222 208 203 202 202 198 198 203 201 201 206 210 208 212 207 206 207 205 209 209 204 202 228 234 220 221 211 208 215 230 232 237
278 271 273 271 246 241 251 251 234 226 228 226 203 205 203 204 205 206 204 203 205 207 207 208 210 204 210 209 207 211 212 207 199 204 226 234 233 207 203 230 235 244 246
279 270 264 260 253 247 252 253 247 231 228 226 214 211 206 205 206 208 209 206 207 210 208 209 207 206 209 205 209 209 208 203 193 193 207 218 222 205 193 219 243 239 258
267 270 269 269 268 255 247 251 256 253 244 225 217 217 215 213 210 209 203 206 207 212 214 214 213 211 213 211 212 206 200 206 197 200 208 215 215 205 215 217 233 247 257
252 263 273 272 270 254 246 246 249 255 258 227 219 216 220 228 230 226 214 203 206 209 213 217 217 216 218 220 224 220 210 209 206 205 214 216 222 220 213 215 218 233 254
249 262 266 259 258 257 253 244 244 251 256 238 225 217 220 230 230 228 225 212 205 210 211 214 220 220 218 214 222 226 228 232 222 213 213 219 216 211 203 210 215 221 237
246 257 260 253 255 258 246 242 245 252 243 245 239 227 225 231 233 230 228 213 208 212 213 211 214 219 218 209 208 219 226 234 231 222 219 220 217 205 203 209 213 216 289
245 248 250 248 253 252 248 249 249 246 251 252 245 232 230 237 238 232 227 208 212 218 218 214 215 218 224 216 207 213 224 237 238 229 228 224 220 212 201 178 182 203 248
254 254 252 248 248 245 245 247 254 251 253 257 258 243 233 234 239 236 229 210 214 219 223 222 224 224 225 217 207 206 218 227 216 212 215 216 206 206 202 193 192 205 227
282 265 256 250 251 248 248 248 238 254 253 249 257 262 244 239 239 238 235 219 213 216 220 222 223 228 227 222 216 214 220 209 195 197 197 198 190 191 196 200 201 205 213
291 275 266 259 261 264 246 256 238 228 237 245 246 258 253 244 242 238 238 238 227 220 222 222 220 227 230 227 228 224 220 203 186 190 195 203 206 213 214 205 207 217 223
302 289 278 274 268 247 222 232 239 224 226 247 244 248 255 249 243 252 247 243 237 226 222 225 225 224 229 230 230 218 203 193 194 206 211 216 217 209 190 186 166 142 104
300 308 299 262 284 284 255 232 227 232 232 243 248 248 255 254 244 242 234 235 233 227 220 221 221 214 212 212 209 206 197 197 204 213 210 209 194 191 197 200 202 189 201
329 320 325 321 263 279 281 253 248 245 237 236 238 237 235 243 249 257 250 233 215 213 196 191 187 185 186 190 195 199 197 202 215 216 203 198 201 205 211 205 203 197 210
333 332 326 322 311 298 320 329 319 294 292 287 283 272 258 258 260 259 257 252 245 222 201 188 193 194 199 204 206 218 218 215 215 212 204 201 202 204 210 211 207 206 213
320 316 313 316 312 310 302 302 323 331 325 316 311 306 292 284 280 274 260 245 234 222 201 188 198 203 204 203 211 221 232 223 214 211 207 203 202 204 206 211 215 215 220
341 323 325 316 300 289 282 273 269 285 312 318 322 318 314 309 298 295 289 265 232 223 201 200 206 209 205 206 210 217 223 222 216 216 209 204 203 204 208 214 216 217 221
341 336 333 328 315 296 291 285 279 288 294 311 332 333 334 331 334 338 348 210 210 224 217 210 207 207 208 207 212 213 215 220 217 213 209 206 204 204 213 218 221 226 227
335 331 341 343 340 340 330 308 307 304 302 302 304 308 322 327 332 333 330 270 234 243 241 226 219 210 210 210 210 210 214 218 215 216 212 208 207 207 212 217 220 224 230
335 336 339 350 350 327 318 306 299 295 293 296 292 295 302 292 288 290 288 281 257 250 245 235 224 215 215 213 210 209 214 224 222 216 212 211 207 210 216 218 221 224 226
349 345 347 341 338 327 318 308 294 288 289 294 301 309 316 317 296 282 279 281 273 259 240 226 225 221 213 209 208 211 219 225 223 213 211 210 209 212 213 217 220 220 222
348 343 339 340 338 322 328 334 320 301 293 293 297 300 299 291 284 281 281 284 284 278 257 233 227 228 228 227 223 215 221 229 223 212 207 208 211 214 214 217 219 218 222
320 308 314 323 329 326 318 314 312 310 307 302 301 296 292 288 284 285 285 284 281 273 261 247 237 235 233 235 240 236 235 236 226 214 207 205 212 217 216 218 222 220 222
318 293 293 297 299 300 303 306 307 307 308 306 301 298 295 293 290 288 285 283 277 265 261 257 251 246 243 245 247 244 243 244 240 226 210 209 212 217 217 218 220 220 223
312 296 293 295 294 290 288 291 296 299 298 299 299 298 297 296 294 290 286 282 279 273 271 266 260 255 254 252 251 250 250 250 247 240 224 213 214 219 217 221 217 218 220
Height
1468 1468 1469 1470 1471 1473 1474 1476 1478 1480 1481 1482 1484 1486 1489 1491 1493 1495 1496 1499 1501 1503 1505 1507 1509 1512 1513 1515 1517 1518 1520 1521 1521 1521 1523 1525 1527 1528 1529 1529 1530 1530 1531
1464 1465 1465 1466 1467 1468 1469 1471 1472 1474 1476 1477 1479 1481 1483 1485 1487 1489 1491 1493 1495 1497 1500 1502 1504 1506 1508 1510 1511 1513 1514 1515 1517 1516 1518 1519 1521 1523 1523 1524 1525 1526 1526
1461 1461 1461 1462 1463 1464 1465 1466 1467 1469 1470 1472 1474 1476 1477 1480 1482 1484 1486 1488 1490 1492 1494 1496 1498 1500 1502 1504 1506 1507 1508 1510 1511 1512 1512 1514 1515 1517 1518 1519 1520 1520 1521
1456 1457 1457 1458 1459 1460 1461 1462 1463 1464 1465 1466 1468 1470 1472 1474 1476 1479 1480 1482 1484 1486 1488 1490 1492 1494 1496 1498 1500 1501 1503 1504 1505 1506 1507 1508 1509 1511 1512 1513 1513 1514 1515
1452 1453 1453 1454 1455 1456 1457 1458 1459 1460 1460 1461 1463 1464 1466 1469 1471 1473 1475 1476 1478 1480 1482 1485 1486 1488 1490 1492 1494 1496 1497 1499 1499 1500 1501 1502 1503 1504 1506 1506 1508 1508 1509
1448 1449 1449 1450 1451 1452 1452 1453 1454 1455 1456 1457 1458 1459 1461 1463 1465 1467 1469 1470 1472 1474 1476 1478 1481 1483 1484 1487 1488 1490 1492 1493 1494 1495 1495 1496 1497 1499 1500 1501 1502 1502 1502
1444 1445 1445 1446 1447 1447 1448 1449 1450 1450 1451 1452 1453 1454 1456 1458 1460 1462 1464 1465 1467 1469 1471 1473 1475 1477 1479 1481 1482 1484 1485 1487 1488 1490 1489 1490 1492 1493 1494 1495 1496 1496 1496
1441 1441 1442 1442 1443 1443 1444 1444 1445 1446 1447 1447 1448 1450 1451 1453 1455 1457 1459 1460 1461 1463 1465 1467 1469 1471 1473 1475 1476 1477 1478 1480 1482 1483 1484 1485 1486 1488 1489 1490 1491 1491 1491
1437 1437 1438 1438 1438 1439 1439 1440 1441 1442 1442 1443 1444 1445 1446 1448 1450 1452 1453 1454 1455 1457 1459 1461 1463 1465 1467 1469 1470 1471 1472 1474 1475 1477 1478 1479 1481 1482 1483 1484 1484 1485 1485
1433 1433 1434 1434 1434 1434 1435 1436 1437 1437 1438 1439 1440 1441 1442 1443 1445 1447 1448 1449 1450 1451 1453 1455 1458 1459 1461 1463 1464 1465 1466 1467 1469 1471 1472 1473 1474 1475 1477 1478 1479 1479 1479
1429 1429 1429 1430 1430 1430 1431 1431 1432 1433 1433 1434 1435 1436 1437 1438 1440 1441 1443 1444 1445 1446 1448 1449 1451 1454 1456 1457 1459 1460 1461 1462 1464 1465 1466 1467 1468 1469 1470 1471 1473 1474 1474
1425 1425 1425 1425 1426 1426 1426 1427 1427 1428 1429 1429 1430 1431 1432 1433 1435 1436 1438 1439 1441 1442 1442 1444 1446 1448 1450 1452 1453 1454 1456 1457 1458 1459 1459 1460 1462 1463 1464 1465 1467 1468 1469
1421 1421 1421 1421 1422 1423 1423 1423 1423 1424 1424 1425 1425 1425 1427 1428 1430 1432 1433 1434 1436 1437 1438 1439 1441 1443 1444 1445 1447 1448 1450 1451 1452 1453 1453 1454 1456 1457 1458 1460 1461 1462 1463
1417 1417 1417 1418 1418 1419 1420 1420 1420 1420 1420 1421 1421 1421 1422 1423 1425 1426 1427 1429 1431 1432 1433 1434 1436 1437 1438 1439 1441 1442 1444 1445 1446 1447 1448 1449 1451 1452 1453 1454 1455 1456 1457
1415 1414 1414 1415 1415 1416 1416 1417 1416 1417 1418 1418 1417 1418 1418 1419 1420 1422 1423 1425 1426 1427 1428 1429 1430 1432 1433 1434 1435 1437 1438 1440 1441 1441 1443 1444 1445 1446 1447 1448 1449 1450 1451
1412 1412 1412 1412 1412 1412 1412 1413 1413 1414 1414 1415 1415 1415 1415 1416 1417 1418 1419 1421 1422 1423 1424 1424 1425 1426 1427 1429 1430 1431 1432 1434 1435 1436 1437 1438 1439 1440 1441 1442 1444 1445 1445
1410 1410 1409 1409 1409 1409 1409 1409 1409 1410 1411 1411 1411 1412 1412 1413 1413 1414 1415 1416 1417 1418 1418 1418 1420 1421 1422 1424 1425 1426 1427 1428 1429 1430 1431 1432 1433 1435 1436 1437 1438 1439 1440
1409 1408 1407 1407 1407 1406 1406 1407 1406 1406 1406 1406 1408 1408 1408 1409 1409 1410 1411 1411 1411 1412 1413 1414 1415 1416 1417 1418 1420 1421 1421 1423 1424 1425 1426 1427 1428 1429 1430 1431 1432 1433 1434
1407 1406 1405 1404 1404 1404 1404 1404 1404 1404 1403 1403 1404 1405 1405 1405 1406 1406 1407 1407 1407 1407 1408 1409 1410 1411 1412 1413 1414 1416 1417 1418 1419 1420 1421 1422 1423 1424 1425 1426 1427 1428 1429
1404 1404 1403 1403 1402 1402 1402 1402 1401 1401 1401 1401 1401 1401 1401 1401 1401 1402 1402 1403 1403 1404 1404 1405 1406 1406 1407 1408 1409 1411 1411 1412 1413 1414 1415 1416 1417 1419 1420 1420 1421 1422 1423
1403 1402 1401 1401 1400 1400 1400 1399 1399 1399 1399 1398 1399 1399 1399 1398 1398 1398 1399 1399 1400 1400 1401 1401 1401 1402 1403 1404 1404 1405 1406 1407 1408 1409 1410 1411 1412 1413 1414 1415 1416 1417 1418
1401 1400 1399 1399 1398 1398 1398 1397 1397 1397 1396 1396 1396 1396 1396 1396 1396 1396 1396 1396 1396 1397 1397 1397 1397 1398 1398 1399 1400 1400 1401 1402 1403 1404 1405 1406 1407 1408 1409 1410 1411 1412 1413
1399 1398 1398 1397 1397 1396 1396 1395 1395 1394 1394 1394 1393 1393 1393 1392 1392 1392 1392 1392 1392 1392 1392 1393 1393 1393 1394 1395 1395 1396 1397 1398 1399 1399 1400 1401 1402 1403 1404 1405 1406 1407 1408
1398 1397 1396 1396 1395 1394 1394 1393 1393 1392 1392 1391 1391 1390 1390 1389 1389 1388 1388 1388 1388 1388 1388 1388 1388 1388 1389 1390 1390 1391 1392 1393 1394 1395 1396 1396 1397 1398 1399 1400 1401 1402 1402
1396 1395 1395 1394 1393 1393 1392 1391 1391 1390 1389 1389 1388 1387 1387 1386 1385 1385 1385 1384 1384 1383 1383 1384 1384 1384 1384 1385 1385 1386 1387 1389 1390 1390 1391 1392 1392 1393 1394 1395 1396 1397 1397
1394 1393 1393 1392 1391 1391 1390 1389 1388 1387 1387 1386 1385 1385 1384 1383 1382 1382 1381 1380 1380 1380 1380 1380 1380 1380 1380 1381 1381 1382 1383 1384 1385 1386 1387 1387 1388 1388 1389 1390 1391 1391 1392